Ashland, MO

7:37 AM CST on February 07, 2016 (GMT -0600)
Columbia Regional

Weather History for KCOU - June, 2014

Change the Weather History Date:

Sunday, June 22, 2014

  Actual Average Record
Temperature  
Mean Temperature 78 °F 75 °F  
Max Temperature 89 °F 85 °F 100 °F (1988)
Min Temperature 66 °F 65 °F 43 °F (1902)
Degree Days  
Heating Degree Days 0 0  
Month to date heating degree days 0 9  
Since 1 June heating degree days 0 9  
Since 1 July heating degree days 5572 5021  
Cooling Degree Days 13 10  
Month to date cooling degree days 186 161  
Year to date cooling degree days 346 264  
Since 1 June cooling degree days 186 161  
Growing Degree Days 28 (Base 50)    
Moisture  
Dew Point 69 °F    
Average Humidity 74    
Maximum Humidity 93    
Minimum Humidity 55    
Precipitation  
Precipitation 0.48 in 0.15 in 1.72 in (1969)
Month to date precipitation 4.76 3.30  
Year to date precipitation 19.58 19.85  
Snow  
Snow 0.00 in 0.00 in 0.00 in (2013)
Month to date snowfall 0.0 0.0  
Since 1 June snowfall 0.0 0.0  
Since 1 July snowfall 17.8 18.0  
Snow Depth 0.00 in    
Sea Level Pressure  
Sea Level Pressure 29.86 in    
Wind  
Wind Speed 8 mph (SSW)    
Max Wind Speed 22 mph    
Max Gust Speed 28 mph    
Visibility 10 miles    
Events Rain , Thunderstorm    
T = Trace of Precipitation, MM = Missing Value Source: NWS Daily Summary

Daily Weather History Graph

Daily Weather History Graph

Search for Another Location

Airport or City:

Trip Planner

Search our weather history database for the weather conditions in past years. The results will help you decide how hot, cold, wet, or windy it might be!

Date:

Astronomy

Jun. 22, 2014 Rise Set
Actual Time 5:44 AM CDT 8:37 PM CDT
Civil Twilight 5:12 AM CDT 9:09 PM CDT
Nautical Twilight 4:31 AM CDT 9:50 PM CDT
Astronomical Twilight 3:45 AM CDT 10:36 PM CDT
Moon 2:30 AM CDT (6/22) 4:20 PM CDT (6/22)
Length of Visible Light 15h 57m
Length of Day
14h 53m
Waning Crescent, 20% of the Moon is Illuminated
Jun 22
Waning Crescent
Jun 27
New
Jul 5
First Quarter
Jul 12
Full
Jul 18
Last Quarter

Hourly Weather History & Observations

Time (CDT) Temp. Heat Index Dew Point Humidity Pressure Visibility Wind Dir Wind Speed Gust Speed Precip Events Conditions
12:54 AM 68.0 °F - 64.9 °F 90% 29.90 in 10.0 mi South 5.8 mph - N/A   Clear
1:54 AM 69.1 °F - 66.0 °F 90% 29.88 in 10.0 mi SSW 4.6 mph - N/A   Clear
2:54 AM 69.1 °F - 64.9 °F 87% 29.89 in 10.0 mi SSW 8.1 mph - N/A   Clear
3:54 AM 68.0 °F - 64.9 °F 90% 29.89 in 10.0 mi South 5.8 mph - N/A   Clear
4:54 AM 66.9 °F - 64.9 °F 93% 29.88 in 10.0 mi SSE 5.8 mph - N/A   Clear
5:54 AM 66.9 °F - 64.9 °F 93% 29.89 in 10.0 mi South 5.8 mph - N/A   Clear
6:54 AM 69.1 °F - 66.9 °F 93% 29.90 in 10.0 mi Calm Calm - N/A   Clear
7:54 AM 73.0 °F - 70.0 °F 90% 29.90 in 10.0 mi SSW 3.5 mph - N/A   Clear
8:54 AM 77.0 °F - 72.0 °F 84% 29.91 in 10.0 mi SW 5.8 mph - N/A   Clear
9:54 AM 80.1 °F 83.8 °F 72.0 °F 76% 29.90 in 10.0 mi WSW 6.9 mph - N/A   Clear
10:54 AM 82.9 °F 88.0 °F 72.0 °F 69% 29.89 in 10.0 mi SSW 4.6 mph - N/A   Clear
11:54 AM 86.0 °F 93.0 °F 73.0 °F 65% 29.88 in 10.0 mi SSW 6.9 mph - N/A   Clear
12:54 PM 87.1 °F 94.5 °F 73.0 °F 63% 29.88 in 10.0 mi South 5.8 mph - N/A   Mostly Cloudy
1:54 PM 88.0 °F 92.9 °F 70.0 °F 55% 29.85 in 10.0 mi SSW 12.7 mph 18.4 mph N/A   Partly Cloudy
2:54 PM 88.0 °F 93.8 °F 71.1 °F 57% 29.81 in 10.0 mi WSW 11.5 mph - 0.00 in   Partly Cloudy
3:54 PM 89.1 °F 95.0 °F 71.1 °F 55% 29.82 in 10.0 mi WSW 15.0 mph 19.6 mph N/A   Scattered Clouds
4:54 PM 88.0 °F 93.8 °F 71.1 °F 57% 29.81 in 10.0 mi SSW 11.5 mph - N/A   Partly Cloudy
5:54 PM 87.1 °F 92.0 °F 70.0 °F 57% 29.80 in 10.0 mi SW 10.4 mph - N/A   Clear
6:54 PM 84.9 °F 90.1 °F 71.1 °F 63% 29.79 in 10.0 mi South 8.1 mph - N/A   Partly Cloudy
7:54 PM 82.9 °F 88.0 °F 72.0 °F 69% 29.78 in 10.0 mi SSE 3.5 mph - N/A   Clear
8:54 PM 73.9 °F - 66.0 °F 76% 29.80 in 10.0 mi ENE 9.2 mph - N/A   Clear
9:54 PM 72.0 °F - 66.9 °F 84% 29.82 in 10.0 mi East 9.2 mph - N/A   Mostly Cloudy
10:54 PM 73.0 °F - 68.0 °F 84% 29.81 in 10.0 mi ESE 11.5 mph - 0.00 in   Partly Cloudy
11:35 PM 73.0 °F - 69.1 °F 87% 29.86 in 10.0 mi WNW 20.7 mph - N/A Thunderstorm Mostly Cloudy
11:43 PM 72.0 °F - 69.1 °F 91% 29.85 in 6.0 mi Variable 4.6 mph - 0.00 in Rain , Thunderstorm Light Thunderstorms and Rain
11:50 PM 71.6 °F - 69.8 °F 94% 29.89 in 3.0 mi West 18.4 mph 23.0 mph 0.03 in Rain , Thunderstorm Heavy Thunderstorms and Rain
11:54 PM 70.0 °F - 68.0 °F 93% 29.85 in 2.0 mi WNW 20.7 mph 27.6 mph 0.08 in Rain , Thunderstorm Heavy Thunderstorms and Rain